Location: Eppenbrunn
(49.1158°N, 7.5601°E)
Time: 15:20:40
(UTC+00:00)

IGS 5A - Pass Details

Date: 14 August 2020
Orbit: 583 x 588 km, 97.6° (Epoch: 26 September)

Event Time Altitude Azimuth Distance (km) Brightness Sun altitude
Exits shadow 20:22:49 20° 160° (SSE) 1,387 4.8 -14.1°
Maximum altitude 20:25:40 80° 75° (ENE) 605 3.4 -14.4°
Drops below altitude 10° 20:29:51 10° 349° (N) 1,927 6.9 -14.9°
Sets 20:32:02 0° 348° (NNW) 2,833 7.9 -15.2°
